Home   Weather   São José dos Campos   Past weeks
Flag for Brazil

Past Weather in São José dos Campos, São Paulo, Brazil — Yesterday and Last 2 Weeks

Now
79 °F

Clear.


Feels Like: 81 °F
Forecast: N/A
Wind: 3 mph from Southwest

Location: Sao Jose Dos Campo

Current Time: Sep 20, 2019 at 5:32:16 pm

Latest Report: Sep 20, 2019 at 5:00 pm


Visibility: 4 mi

Pressure: 29.98 "Hg (28.04 "Hg at 587m altitude)

Humidity: 61%

Dew Point: 64 °F

Location of São José dos CamposLocation

Past Weather in São José dos Campos — Graph

°F

São José dos Campos Temperature Yesterday

Maximum temperature yesterday: 90 °F (at 3:00 pm)
Minimum temperature yesterday: 63 °F (at 4:00 am)
Average temperature yesterday: 74 °F

High & Low Weather Summary for the Past Weeks

 TemperatureHumidityPressure
High97 °F (Sep 18, 3:00 pm)94% (Sep 5, 11:00 pm)30.39 "Hg (Sep 5, 11:00 pm)
Low57 °F (Sep 5, 7:00 pm)11% (Sep 11, 4:00 pm)26.96 "Hg (Sep 7, 3:00 pm)
Average73 °F63%30.07 "Hg
* Reported Sep 5 4:00 pm — Sep 20 4:00 pm, São José dos Campos. Weather by CustomWeather, © 2019

Note: Actual official high and low records may vary slightly from our data, if they occured in-between our weather recording intervals... More about our weather records

Advertising

São José dos Campos Weather History for the Previous 24 Hours

Scroll right to see more
 ConditionsComfort  
Time TempWeatherWind HumidityBarometerVisibility
4:00 pm
Fri, Sep 20
79 °FClear.8 mph61%29.95 "Hg4 mi
3:00 pm84 °FHaze.8 mph48%29.95 "Hg3 mi
2:00 pm84 °FHaze.2 mph45%29.92 "Hg3 mi
1:00 pm84 °FHaze.5 mph48%29.95 "Hg3 mi
12:00 pm82 °FHaze.3 mph51%29.98 "Hg3 mi
11:00 am81 °FClear.5 mph51%30.01 "Hg4 mi
10:00 am75 °FHaze.2 mph69%30.01 "Hg3 mi
9:00 am73 °FClear.3 mph74%30.04 "Hg4 mi
8:00 am72 °FScattered clouds.2 mph78%30.04 "Hg2 mi
7:00 am68 °FFog.9 mph88%30.04 "Hg2 mi
6:00 am68 °FFog.2 mph83%29.98 "Hg3 mi
5:00 am68 °FPassing clouds.1 mph83%29.95 "Hg5 mi
4:00 am68 °FPassing clouds.10 mph83%29.95 "Hg5 mi
3:00 am68 °FPassing clouds.5 mph83%29.89 "Hg5 mi
2:00 am68 °FPassing clouds.12 mph83%29.89 "HgN/A
1:00 am68 °FPassing clouds.2 mph83%29.92 "HgN/A
12:00 am70 °FPassing clouds.3 mph78%29.92 "HgN/A
11:00 pm
Thu, Sep 19
70 °FPassing clouds.2 mph78%29.92 "HgN/A
10:00 pm70 °FPassing clouds.9 mph78%29.92 "HgN/A
9:00 pm70 °FPassing clouds.10 mph78%29.92 "HgN/A
8:00 pm70 °FPassing clouds.8 mph78%29.92 "HgN/A
7:00 pm72 °FPassing clouds.20 mph78%29.89 "HgN/A
6:00 pm81 °FPassing clouds.9 mph54%29.83 "Hg5 mi
5:00 pm88 °FScattered clouds.2 mph38%29.80 "Hg5 mi
Weather by CustomWeather, © 2019

See weather overview